Theta_e
300 300 303 321 339 340 340 340 338 338 339 339 339 338 336 338 342 343 342 340 341 346 342 340 338 336 334 332 332 329 326 327 327 323 322 324 325 316 314 313 313 313 314
299 301 302 316 337 338 341 336 335 331 339 340 342 342 340 341 342 342 341 340 345 346 342 338 335 331 329 328 327 326 325 322 321 321 317 314 318 319 313 311 313 311 312
300 300 300 313 336 335 336 340 339 339 340 340 344 342 343 343 341 340 341 343 346 345 340 336 333 329 328 327 326 326 324 320 319 315 317 310 309 310 314 310 310 310 309
300 300 299 299 333 338 337 340 333 333 338 342 341 341 339 338 340 341 340 341 343 338 336 332 330 329 328 324 321 320 318 315 311 311 311 309 308 303 300 306 307 309 309
299 302 300 300 311 338 339 338 335 332 338 343 343 342 340 340 341 339 336 335 334 334 333 331 330 327 323 320 316 314 313 312 310 308 308 308 306 305 303 300 303 305 307
299 300 302 302 302 323 339 336 335 337 339 344 339 336 339 339 337 336 334 333 333 332 332 330 327 323 319 317 315 314 313 310 309 308 307 305 303 303 302 300 300 300 303
297 298 299 300 301 312 337 338 334 338 336 339 333 341 339 337 336 336 333 332 331 329 327 327 324 320 316 315 314 313 311 309 308 306 305 305 304 303 302 300 299 298 301
298 298 297 300 301 315 335 339 338 336 330 330 329 337 340 336 335 337 335 333 331 328 326 322 319 317 316 315 313 312 310 308 307 305 304 302 302 301 301 300 297 296 297
301 299 297 298 301 314 333 338 340 338 328 328 331 338 338 336 335 336 335 333 329 325 321 319 317 317 316 313 311 311 309 308 305 303 302 300 299 299 299 299 299 297 295
303 301 298 298 302 307 328 339 339 341 332 330 337 337 339 338 337 336 332 328 325 321 318 316 316 316 315 313 312 309 307 306 304 303 298 297 297 297 297 298 297 297 296
302 303 302 305 306 307 313 337 340 341 339 337 337 336 339 337 335 330 326 323 319 317 316 316 315 313 311 310 309 308 307 305 302 299 297 296 295 294 295 295 295 295 295
304 305 302 306 310 312 325 337 340 340 339 340 336 338 337 332 326 324 321 319 316 317 316 315 313 312 311 310 309 308 307 303 300 297 296 295 298 294 294 294 294 294 295
304 305 304 306 309 323 333 339 340 340 338 336 335 333 328 324 323 320 318 317 317 315 313 312 311 312 311 309 308 307 304 301 299 297 295 295 295 294 293 294 294 294 297
304 304 305 307 309 317 335 336 338 339 337 335 333 327 324 322 319 318 317 314 313 309 308 307 307 307 308 308 306 305 302 301 299 298 296 296 296 295 295 295 294 295 294
305 305 305 308 313 318 330 335 335 336 335 327 324 322 320 318 315 313 312 310 306 304 304 302 301 302 304 306 302 299 296 294 294 295 295 296 300 302 300 297 294 293 292
306 308 309 317 315 323 328 330 330 329 326 322 319 316 313 312 309 307 304 302 300 299 299 298 299 299 301 304 303 297 293 293 292 291 291 293 296 296 298 300 300 298 292
305 307 313 319 322 325 327 326 325 324 321 317 315 313 310 308 306 303 299 296 295 295 295 296 299 299 301 299 299 298 292 290 289 289 289 292 294 294 291 294 296 295 298
307 312 319 322 324 324 323 322 321 319 316 313 311 309 306 303 300 297 295 294 294 293 293 293 294 296 297 297 296 296 291 290 290 290 289 289 289 292 291 290 290 291 291
307 311 319 319 319 318 318 318 316 315 313 311 309 307 304 299 297 295 294 292 291 291 290 291 291 292 291 296 296 293 290 289 288 290 292 290 289 294 294 289 288 289 291
308 315 317 316 315 315 315 314 313 312 310 308 305 304 301 297 294 293 292 292 291 290 290 289 290 293 290 294 294 291 289 287 288 288 289 294 292 292 292 287 286 287 288
309 316 315 313 313 314 313 311 311 310 310 309 305 302 299 297 296 294 291 290 289 288 288 287 286 288 289 291 293 293 287 287 287 287 286 288 292 291 291 291 288 287 290
315 316 315 315 316 316 314 311 309 309 308 306 303 300 298 296 294 293 289 288 288 287 286 285 285 286 287 294 293 293 292 290 285 285 285 286 290 289 290 289 290 290 290
314 315 313 313 314 315 313 309 309 308 306 304 300 297 296 295 293 289 287 286 287 286 285 286 285 285 285 286 292 292 292 292 286 287 289 289 288 288 287 289 289 289 287
311 312 312 310 309 311 310 309 309 306 303 300 299 298 297 294 291 289 287 286 286 286 286 285 284 284 284 284 284 285 285 288 286 286 285 287 287 288 286 286 286 286 286
311 311 309 308 307 306 303 302 302 300 298 297 296 294 291 288 286 286 285 285 284 286 285 282 285 285 284 285 287 285 284 283 286 282 282 281 281 281 282 282 283 284 284
303 302 301 301 300 300 299 300 300 298 296 293 292 290 288 286 287 286 286 290 289 289 289 289 288 287 289 289 289 288 288 287 286 281 279 279 279 279 279 280 281 282 283
Wind_Speed
6 4 8 9 9 12 17 17 18 15 10 7 9 7 7 5 4 4 6 6 6 7 8 5 5 4 4 4 3 2 4 4 3 2 3 4 5 5 5 4 4 5 4
8 1 6 7 9 15 15 13 15 10 10 8 3 3 7 5 3 4 4 6 7 6 7 6 5 5 5 5 3 3 2 3 5 2 2 2 2 1 2 3 3 6 4
12 4 5 8 7 12 16 16 13 12 11 11 7 5 2 6 4 5 4 4 8 6 7 6 7 5 4 4 3 4 4 3 4 6 3 2 2 3 2 3 4 7 4
8 5 5 6 9 12 15 17 12 13 9 9 7 11 6 6 3 7 6 6 9 7 7 6 6 6 4 6 5 4 4 3 3 2 4 5 2 1 5 3 4 5 4
10 10 9 10 10 10 12 15 14 10 8 9 8 8 8 6 5 8 12 7 7 8 8 7 8 7 6 6 7 6 7 4 4 2 2 4 3 4 3 4 5 4 3
7 8 7 7 9 8 12 12 13 12 9 11 11 12 10 9 10 9 8 6 4 6 7 8 7 7 6 8 7 7 8 6 6 5 5 3 3 2 2 2 4 5 5
6 8 7 7 8 10 11 13 16 14 12 12 11 15 15 14 13 11 8 7 4 6 6 8 6 7 7 8 7 7 6 5 6 6 4 4 3 1 0 1 3 3 4
7 9 10 8 9 11 12 15 18 16 13 13 12 12 17 12 12 12 6 6 6 7 7 9 8 7 10 8 6 5 6 7 7 8 5 3 4 2 2 0 1 3 3
10 9 10 9 9 10 13 15 16 17 14 15 12 12 11 14 13 16 12 8 10 10 10 9 9 8 9 8 6 6 7 8 6 5 6 3 3 4 3 2 1 1 3
12 10 8 9 8 9 13 16 15 19 19 17 14 14 15 14 13 12 10 8 8 14 11 11 10 10 8 7 7 7 6 8 4 4 5 4 3 4 4 3 2 1 3
10 11 7 4 6 10 10 16 16 18 19 19 16 17 14 15 15 14 15 13 13 10 13 11 11 9 8 5 7 7 7 7 6 4 5 6 6 4 4 3 2 2 2
10 8 7 7 4 7 12 16 17 18 20 20 21 20 17 14 14 14 15 15 15 9 11 13 11 9 7 6 6 6 6 7 6 5 6 8 5 6 4 3 5 3 4
11 11 7 7 3 5 13 17 18 19 19 21 21 18 17 17 17 15 16 15 15 10 12 13 10 8 8 7 6 8 7 7 5 6 8 5 6 5 4 4 5 4 4
11 10 7 8 4 5 13 16 17 17 17 20 20 18 17 18 18 17 17 17 13 12 13 10 10 8 7 8 7 7 7 5 6 7 6 6 5 6 6 5 5 5 5
12 10 10 10 7 8 13 18 15 17 16 19 20 19 18 19 19 18 17 17 13 11 11 12 10 7 8 6 7 7 6 7 7 7 5 5 9 12 9 4 6 6 4
12 14 14 10 6 12 15 20 16 18 19 20 21 21 20 19 19 17 17 14 14 10 9 11 9 9 6 12 12 9 7 7 7 5 6 5 8 9 15 14 11 8 4
10 17 16 7 13 14 21 21 19 18 20 23 22 21 21 19 17 19 20 12 12 10 10 9 11 10 8 13 13 14 6 5 6 6 5 5 6 10 8 12 12 12 14
11 14 9 14 17 19 23 23 21 20 22 22 22 22 23 21 15 15 18 13 11 11 10 10 12 11 7 13 12 11 6 6 6 4 5 6 8 10 10 7 8 9 8
6 9 14 25 21 23 25 25 23 22 23 24 24 21 21 24 16 18 15 9 12 13 11 11 10 11 7 9 9 7 6 7 5 5 7 7 8 15 14 9 10 11 11
3 8 18 25 27 24 26 26 22 21 22 21 25 24 23 22 22 15 14 9 13 13 12 12 9 12 8 9 10 7 5 6 4 6 7 15 12 15 17 9 9 11 10
3 12 21 26 27 28 29 25 23 20 20 20 19 23 24 22 19 16 12 14 14 14 12 11 7 9 8 7 12 12 5 4 5 5 5 6 15 17 18 15 10 8 10
13 21 22 22 24 26 29 25 24 21 22 23 17 23 22 18 14 16 12 15 14 13 10 9 8 6 7 11 13 12 12 10 6 5 4 7 16 17 18 14 19 18 12
18 21 22 23 20 20 26 29 20 21 23 23 22 19 20 17 16 15 15 12 11 9 7 8 8 7 5 5 14 14 14 13 6 5 10 14 16 16 13 18 18 15 8
21 21 25 28 24 23 23 25 23 22 23 23 22 19 18 16 15 11 10 11 8 7 8 8 8 5 4 5 5 6 6 9 9 11 9 12 14 15 12 11 10 7 8
20 19 21 24 24 22 22 22 21 23 22 21 18 17 12 14 14 13 9 7 4 5 8 4 6 8 8 5 8 4 6 5 9 6 6 9 8 9 10 9 9 8 9
17 19 22 25 23 23 21 20 19 22 23 20 15 12 12 13 13 12 11 17 13 15 13 13 11 7 13 15 15 18 16 15 12 6 7 7 7 8 7 8 9 8 11
Wind_Direction
266 129 206 211 152 166 171 185 189 182 167 167 165 158 160 152 163 167 159 142 128 135 124 120 111 89 88 107 117 97 78 31 15 74 30 31 47 55 45 43 39 18 8
287 325 182 208 173 173 176 181 197 182 175 177 176 127 161 136 146 112 126 125 128 126 122 122 106 96 101 87 80 91 105 63 11 80 87 63 318 357 60 30 14 19 12
272 277 183 200 197 175 182 187 190 184 185 173 141 105 80 84 93 94 98 113 115 110 116 104 103 111 99 103 84 74 80 105 40 40 110 57 269 327 335 360 10 8 4
241 217 207 204 201 203 193 188 179 187 176 168 157 157 155 128 154 126 113 100 100 100 91 101 101 96 99 79 67 56 71 95 49 11 45 64 101 103 328 336 341 339 345
215 235 199 192 218 208 204 188 181 186 175 165 157 139 131 109 105 98 95 93 101 118 115 115 113 106 91 81 78 65 66 59 77 49 37 45 44 64 71 299 323 337 312
235 246 209 203 198 224 188 198 181 190 176 168 148 127 138 125 115 116 117 136 129 106 96 87 91 89 96 91 79 71 69 72 71 58 47 57 63 26 359 337 315 282 296
266 248 219 206 180 200 192 188 195 190 178 169 140 130 123 118 116 115 124 145 139 115 112 99 106 98 96 86 84 76 69 67 74 66 58 47 48 9 263 119 277 307 302
289 265 241 202 182 188 203 185 193 197 172 166 144 138 142 141 137 131 150 154 154 135 121 99 89 91 86 85 87 89 82 71 68 67 61 58 36 35 26 81 342 327 307
288 274 240 212 183 185 194 190 192 190 174 176 145 144 147 166 168 146 153 154 163 108 106 107 107 96 88 90 86 92 83 78 70 68 59 54 24 27 24 31 156 205 300
304 294 248 221 199 190 188 192 176 183 179 172 157 152 156 152 151 135 134 150 144 115 108 107 103 92 85 85 102 87 80 83 71 63 66 42 19 22 10 357 349 290 237
288 305 245 178 199 188 184 182 169 175 172 164 156 155 156 142 142 133 134 138 106 111 116 108 100 96 91 91 93 88 94 92 76 49 50 44 32 10 3 339 326 312 280
275 280 253 272 83 199 172 171 170 166 170 157 153 157 147 133 129 125 117 112 106 112 116 105 98 99 107 99 88 93 93 86 72 47 46 33 5 3 331 332 350 312 285
291 291 282 227 136 202 163 163 163 168 162 146 146 138 134 124 120 117 111 112 108 112 100 97 108 118 103 96 79 94 96 82 71 52 44 12 4 344 339 348 342 313 299
267 275 282 267 179 168 159 155 157 161 152 138 133 127 122 122 120 118 113 109 109 112 98 104 103 96 97 93 96 100 92 87 64 54 36 14 359 1 331 333 328 325 319
275 270 266 235 216 133 153 143 148 146 135 124 120 116 119 119 116 110 113 102 106 100 111 108 89 90 84 93 99 90 83 73 59 41 13 10 11 358 356 350 336 332 333
269 275 272 216 178 137 141 135 140 138 131 120 115 114 113 113 110 110 94 101 96 100 105 90 99 92 82 99 102 97 80 66 58 35 7 350 359 350 3 6 5 7 348
288 272 250 185 128 127 125 127 132 124 119 116 115 115 113 109 106 109 101 102 97 103 87 90 94 79 94 107 97 86 78 74 55 43 16 15 2 3 359 348 356 1 10
277 283 134 112 108 117 114 117 117 121 119 117 118 118 112 100 100 96 98 105 109 97 94 88 81 89 79 95 90 93 85 69 55 45 27 26 3 5 2 337 354 356 356
306 289 129 116 119 120 115 115 120 122 123 122 118 115 112 115 107 101 105 110 106 93 88 71 76 85 64 72 80 84 76 70 51 31 29 27 13 7 6 11 6 359 359
138 128 127 118 115 112 110 109 112 120 119 120 118 119 120 108 112 111 113 121 99 91 83 78 66 86 76 53 72 83 79 67 43 29 19 23 25 15 17 21 11 7 345
102 146 122 117 119 114 108 103 104 105 104 104 107 119 107 107 105 114 126 101 91 88 81 80 64 65 64 56 74 73 79 77 56 33 14 12 14 16 18 21 17 353 328
146 132 120 116 111 120 114 110 103 105 107 103 109 106 108 107 116 108 102 94 95 94 93 93 78 54 46 67 71 76 72 66 65 34 6 10 14 15 14 15 4 1 359
132 117 116 107 103 111 114 109 111 115 109 112 107 104 106 111 106 109 103 94 92 96 104 97 94 78 48 60 66 64 64 59 58 35 34 22 17 14 15 10 6 2 356
112 117 114 104 104 104 104 109 118 115 111 112 114 112 106 103 101 96 87 89 102 111 105 105 92 97 88 61 43 46 38 46 46 30 27 26 23 26 12 9 6 358 360
108 108 105 104 105 104 105 107 111 112 108 106 105 101 99 95 87 69 75 89 56 100 114 107 111 107 81 48 72 86 56 43 42 32 30 30 17 12 8 360 358 1 3
87 96 98 96 100 101 101 106 112 111 113 109 107 109 102 96 93 95 87 62 86 86 92 92 96 70 89 81 72 61 55 48 33 42 37 25 18 15 353 354 351 359 0